Location: Newark
(34.6000°S, 58.3833°W)
Time: 18:48:56
(UTC+00:00)

Envisat - Visible Passes

Search period start: 20 October 2019 00:00
Search period end: 30 October 2019 00:00
Orbit: 764 x 766 km, 98.1° (Epoch: 20 October)

Date Brightness Start Highest point End Pass type
(mag) Time Alt. Az. Time Alt. Az. Time Alt. Az.
20 Oct 5.5 23:49:38 10° SSW 23:53:36 23° WSW 23:57:32 10° WNW visible
21 Oct 3.9 23:12:07 10° S 23:17:06 52° WSW 23:22:02 10° NNW visible
22 Oct 3.0 22:35:17 10° SSE 22:40:24 66° E 22:45:27 10° N visible
23 Oct 6.2 00:16:34 10° SW 00:18:47 13° WSW 00:21:01 10° W visible
23 Oct 5.1 23:38:03 10° S 23:42:26 29° WSW 23:46:46 10° NW visible
24 Oct 3.4 23:00:46 10° S 23:05:53 68° WSW 23:10:56 10° NNW visible
26 Oct 6.0 00:04:31 10° SSW 00:07:40 17° WSW 00:10:47 10° WNW visible
26 Oct 4.7 23:26:33 10° S 23:31:15 37° WSW 23:35:54 10° NW visible
27 Oct 3.1 22:49:28 10° SSE 22:54:38 87° WSW 22:59:44 10° NNW visible
28 Oct 5.7 23:52:46 10° SSW 23:56:32 21° WSW 00:00:16 10° WNW visible
29 Oct 4.2 23:15:08 10° S 23:20:03 47° WSW 23:24:55 10° NW visible
